GW0819 Weather Reports


Display with metric or nautical units.
time (UTC)temp
F
wind
direction
speed
MPH
gust
MPH
rain 1hr
in
rain 24hr
in
rain mn
in
humidity
%
barometer
mb
20260509221336 87 358 6.0 9.0 0.00 0.00 0.00 12 1005.7
20260509220831 87 306 6.0 11.0 0.00 0.00 0.00 12 1005.8
20260509220328 87 337 8.0 11.0 0.00 0.00 0.00 12 1005.6
20260509215823 87 279 12.0 17.0 0.00 0.00 0.00 12 1005.8
20260509215320 87 319 15.0 19.0 0.00 0.00 0.00 12 1005.8
20260509214817 87 319 10.0 14.0 0.00 0.00 0.00 12 1006.1
20260509214314 89 317 13.0 20.0 0.00 0.00 0.00 11 1006.2
20260509213811 88 273 11.0 20.0 0.00 0.00 0.00 12 1006.3
20260509213307 87 277 17.0 21.0 0.00 0.00 0.00 12 1006.2
20260509212804 88 259 17.0 18.0 0.00 0.00 0.00 12 1006.3
20260509212305 90 311 22.0 25.0 0.00 0.00 0.00 11 1006.6
20260509211757 89 293 17.0 23.0 0.00 0.00 0.00 11 1006.5
20260509211253 89 286 23.0 33.0 0.00 0.00 0.00 11 1006.5
20260509210750 90 288 26.0 30.0 0.00 0.00 0.00 11 1006.6
20260509210248 87 256 18.0 26.0 0.00 0.00 0.00 12 1007.0
20260509205747 89 283 13.0 21.0 0.00 0.00 0.00 11 1007.2
20260509205242 87 319 15.0 18.0 0.00 0.00 0.00 12 1007.0
20260509204738 88 239 23.0 26.0 0.00 0.00 0.00 11 1007.1
20260509204235 88 272 19.0 23.0 0.00 0.00 0.00 12 1007.1
20260509203731 87 281 11.0 24.0 0.00 0.00 0.00 12 1007.3
20260509203229 87 274 5.0 17.0 0.00 0.00 0.00 13 1007.2
20260509202725 88 306 15.0 20.0 0.00 0.00 0.00 12 1007.4
20260509202221 88 321 18.0 26.0 0.00 0.00 0.00 12 1007.4
20260509201715 88 312 16.0 23.0 0.00 0.00 0.00 12 1007.7
20260509201212 87 279 19.0 28.0 0.00 0.00 0.00 12 1007.7
20260509200709 87 278 15.0 30.0 0.00 0.00 0.00 12 1007.8
20260509200203 86 310 15.0 17.0 0.00 0.00 0.00 12 1007.9
20260509195659 87 279 11.0 25.0 0.00 0.00 0.00 12 1008.0
20260509195155 87 292 18.0 29.0 0.00 0.00 0.00 12 1007.9
20260509194649 85 304 12.0 14.0 0.00 0.00 0.00 14 1007.9
20260509194146 86 281 15.0 20.0 0.00 0.00 0.00 14 1008.1
20260509193642 87 253 21.0 28.0 0.00 0.00 0.00 14 1008.1
20260509193138 86 255 16.0 26.0 0.00 0.00 0.00 13 1008.1
20260509192635 87 277 12.0 18.0 0.00 0.00 0.00 14 1008.1
20260509192129 86 249 10.0 22.0 0.00 0.00 0.00 13 1008.2
20260509191624 86 285 20.0 25.0 0.00 0.00 0.00 12 1008.2
20260509191121 87 259 25.0 25.0 0.00 0.00 0.00 15 1008.2
20260509190617 87 257 11.0 19.0 0.00 0.00 0.00 15 1008.6
20260509190115 87 266 24.0 26.0 0.00 0.00 0.00 15 1008.6
20260509185612 86 268 12.0 17.0 0.00 0.00 0.00 16 1008.6
20260509185108 86 297 10.0 26.0 0.00 0.00 0.00 15 1008.7
20260509184607 85 267 14.0 20.0 0.00 0.00 0.00 16 1008.4
20260509184103 85 260 20.0 25.0 0.00 0.00 0.00 15 1008.8
20260509183558 85 252 21.0 27.0 0.00 0.00 0.00 16 1008.8
20260509183054 84 262 21.0 24.0 0.00 0.00 0.00 16 1009.2
20260509182551 84 267 18.0 28.0 0.00 0.00 0.00 16 1009.0
20260509182048 84 279 17.0 19.0 0.00 0.00 0.00 17 1009.4
20260509181546 84 240 20.0 24.0 0.00 0.00 0.00 17 1009.2
20260509181043 83 269 14.0 23.0 0.00 0.00 0.00 17 1009.2
20260509180538 83 248 20.0 24.0 0.00 0.00 0.00 17 1009.2
20260509180036 84 264 15.0 25.0 0.00 0.00 0.00 17 1009.5
20260509175531 83 252 11.0 22.0 0.00 0.00 0.00 18 1009.4
20260509175029 84 255 16.0 22.0 0.00 0.00 0.00 19 1009.0
20260509174526 84 247 14.0 26.0 0.00 0.00 0.00 19 1009.6
20260509174020 82 253 21.0 24.0 0.00 0.00 0.00 21 1009.5
20260509173515 81 255 14.0 17.0 0.00 0.00 0.00 23 1009.9
20260509173011 82 254 14.0 21.0 0.00 0.00 0.00 22 1009.9
20260509172508 80 247 16.0 22.0 0.00 0.00 0.00 23 1009.8
20260509172004 80 249 18.0 19.0 0.00 0.00 0.00 24 1010.0
20260509171500 79 232 13.0 22.0 0.00 0.00 0.00 24 1010.3
20260509170957 79 244 23.0 24.0 0.00 0.00 0.00 23 1010.3
20260509170452 80 245 17.0 24.0 0.00 0.00 0.00 23 1010.1
20260509165948 79 249 17.0 30.0 0.00 0.00 0.00 24 1010.3
20260509165447 77 238 20.0 25.0 0.00 0.00 0.00 25 1010.3
20260509164943 76 228 12.0 24.0 0.00 0.00 0.00 27 1010.3
20260509164439 77 237 19.0 26.0 0.00 0.00 0.00 26 1010.8
20260509163935 76 243 22.0 24.0 0.00 0.00 0.00 26 1010.6
20260509163433 76 250 20.0 26.0 0.00 0.00 0.00 27 1010.5
20260509162932 76 249 17.0 27.0 0.00 0.00 0.00 27 1010.5
20260509162431 76 242 15.0 26.0 0.00 0.00 0.00 26 1010.5
20260509161926 76 248 19.0 28.0 0.00 0.00 0.00 26 1010.5
20260509161423 75 244 20.0 22.0 0.00 0.00 0.00 27 1010.3
20260509160918 76 244 21.0 22.0 0.00 0.00 0.00 27 1010.3
20260509160414 75 217 17.0 24.0 0.00 0.00 0.00 28 1010.0
20260509155910 75 221 12.0 21.0 0.00 0.00 0.00 28 1010.0
20260509155407 75 200 12.0 20.0 0.00 0.00 0.00 28 1010.1
20260509154903 74 210 15.0 17.0 0.00 0.00 0.00 29 1010.1
20260509154359 73 208 15.0 25.0 0.00 0.00 0.00 29 1010.0
20260509153856 73 203 16.0 20.0 0.00 0.00 0.00 31 1010.1
20260509153354 72 184 14.0 21.0 0.00 0.00 0.00 31 1010.3
20260509152850 72 194 14.0 22.0 0.00 0.00 0.00 32 1010.5
20260509152346 72 193 20.0 21.0 0.00 0.00 0.00 32 1010.4
20260509151844 71 189 15.0 20.0 0.00 0.00 0.00 33 1010.5
20260509151339 71 165 18.0 20.0 0.00 0.00 0.00 34 1010.5
20260509150838 71 189 15.0 22.0 0.00 0.00 0.00 34 1010.4
20260509150336 69 180 13.0 19.0 0.00 0.00 0.00 36 1010.5
20260509145833 69 185 13.0 22.0 0.00 0.00 0.00 36 1010.7
20260509145327 68 152 12.0 18.0 0.00 0.00 0.00 38 1010.9
20260509144824 67 151 11.0 20.0 0.00 0.00 0.00 39 1010.8
20260509144321 68 144 13.0 19.0 0.00 0.00 0.00 39 1010.8
20260509143818 66 164 18.0 24.0 0.00 0.00 0.00 40 1010.9
20260509143316 66 165 15.0 21.0 0.00 0.00 0.00 40 1010.7
20260509142811 65 158 17.0 23.0 0.00 0.00 0.00 42 1010.8
20260509142308 66 159 18.0 20.0 0.00 0.00 0.00 42 1010.8
20260509141803 65 155 12.0 22.0 0.00 0.00 0.00 43 1010.9
20260509141300 65 157 13.0 19.0 0.00 0.00 0.00 44 1011.3
20260509140757 65 135 11.0 15.0 0.00 0.00 0.00 44 1010.7
20260509140254 64 132 13.0 16.0 0.00 0.00 0.00 46 1011.4
20260509135752 63 147 13.0 15.0 0.00 0.00 0.00 46 1011.2
20260509135249 63 135 11.0 15.0 0.00 0.00 0.00 47 1011.1
20260509134746 63 137 7.0 12.0 0.00 0.00 0.00 46 1011.2
20260509134244 63 138 12.0 15.0 0.00 0.00 0.00 46 1011.2
20260509133740 63 112 11.0 12.0 0.00 0.00 0.00 45 1011.3
20260509133237 62 126 6.0 8.0 0.00 0.00 0.00 44 1011.3
20260509132736 62 102 5.0 5.0 0.00 0.00 0.00 44 1010.9
20260509132234 61 91 4.0 7.0 0.00 0.00 0.00 44 1011.1
20260509131730 61 82 4.0 5.0 0.00 0.00 0.00 44 1010.9
20260509131227 60 79 3.0 6.0 0.00 0.00 0.00 45 1011.2
20260509130723 58 67 3.0 5.0 0.00 0.00 0.00 46 1010.9
20260509130219 57 62 3.0 4.0 0.00 0.00 0.00 46 1011.1
20260509125716 56 56 3.0 4.0 0.00 0.00 0.00 47 1010.6
20260509125213 56 58 3.0 5.0 0.00 0.00 0.00 47 1010.7
20260509124709 54 36 5.0 6.0 0.00 0.00 0.00 49 1010.9
20260509124206 54 12 5.0 5.0 0.00 0.00 0.00 48 1010.8
20260509123704 55 40 4.0 5.0 0.00 0.00 0.00 48 1010.7
20260509123201 54 38 4.0 5.0 0.00 0.00 0.00 49 1010.7
20260509122656 54 30 4.0 6.0 0.00 0.00 0.00 49 1010.9
20260509122153 52 18 4.0 6.0 0.00 0.00 0.00 52 1010.7
20260509121650 51 2 4.0 5.0 0.00 0.00 0.00 52 1010.7
20260509121148 51 4 5.0 5.0 0.00 0.00 0.00 51 1010.5
20260509120646 53 23 4.0 6.0 0.00 0.00 0.00 51 1010.6
20260509120144 52 21 5.0 5.0 0.00 0.00 0.00 51 1010.6
20260509115641 51 10 4.0 4.0 0.00 0.00 0.00 53 1010.7
20260509115138 51 5 3.0 4.0 0.00 0.00 0.00 53 1010.3
20260509114636 50 0 3.0 4.0 0.00 0.00 0.00 53 1010.5
20260509114135 50 353 4.0 5.0 0.00 0.00 0.00 53 1010.5
20260509113633 50 7 4.0 5.0 0.00 0.00 0.00 53 1010.3
20260509113130 51 9 5.0 5.0 0.00 0.00 0.00 51 1010.4
20260509112627 53 28 5.0 6.0 0.00 0.00 0.00 50 1010.3
20260509112124 52 41 5.0 6.0 0.00 0.00 0.00 50 1010.3
20260509111621 51 51 5.0 5.0 0.00 0.00 0.00 51 1010.5
20260509111117 52 28 6.0 6.0 0.00 0.00 0.00 51 1010.6
20260509110615 53 23 6.0 6.0 0.00 0.00 0.00 49 1010.5
20260509110112 53 39 4.0 5.0 0.00 0.00 0.00 50 1010.3
20260509105610 53 44 4.0 5.0 0.00 0.00 0.00 51 1010.1
20260509105107 53 67 4.0 5.0 0.00 0.00 0.00 50 1010.4
20260509104604 53 78 4.0 5.0 0.00 0.00 0.00 50 1010.4
20260509104101 53 71 3.0 5.0 0.00 0.00 0.00 50 1010.5
20260509103559 53 78 4.0 5.0 0.00 0.00 0.00 49 1010.5
20260509103057 53 82 5.0 6.0 0.00 0.00 0.00 49 1010.7
20260509102554 53 64 5.0 5.0 0.00 0.00 0.00 49 1010.8
20260509102050 55 56 5.0 6.0 0.00 0.00 0.00 47 1010.7
20260509101547 55 67 3.0 5.0 0.00 0.00 0.00 48 1010.6
20260509101044 55 70 4.0 4.0 0.00 0.00 0.00 47 1010.8
20260509100541 55 81 4.0 5.0 0.00 0.00 0.00 48 1010.9
20260509100038 55 81 4.0 4.0 0.00 0.00 0.00 47 1010.7
20260509095535 56 89 4.0 5.0 0.00 0.00 0.00 47 1010.6
20260509095032 55 89 3.0 4.0 0.00 0.00 0.00 47 1010.6
20260509094528 55 103 2.0 3.0 0.00 0.00 0.00 47 1010.6
20260509094026 55 113 2.0 3.0 0.00 0.00 0.00 48 1010.5
20260509093524 54 93 0.0 2.0 0.00 0.00 0.00 49 1010.5
20260509093021 55 77 0.0 3.0 0.00 0.00 0.00 48 1010.6
20260509092519 55 75 3.0 3.0 0.00 0.00 0.00 48 1010.7
20260509092017 55 65 3.0 4.0 0.00 0.00 0.00 47 1010.5
20260509091514 55 62 4.0 5.0 0.00 0.00 0.00 47 1010.5
20260509091011 55 72 3.0 4.0 0.00 0.00 0.00 47 1010.7
20260509090508 55 76 3.0 3.0 0.00 0.00 0.00 46 1010.7
20260509090006 56 87 3.0 5.0 0.00 0.00 0.00 46 1010.7
20260509085503 56 85 4.0 5.0 0.00 0.00 0.00 46 1010.7
20260509084959 56 77 4.0 5.0 0.00 0.00 0.00 46 1010.7
20260509084456 56 83 4.0 5.0 0.00 0.00 0.00 46 1010.5
20260509083953 56 96 3.0 4.0 0.00 0.00 0.00 45 1010.8
20260509083450 56 105 4.0 5.0 0.00 0.00 0.00 45 1010.8
20260509082946 56 109 5.0 6.0 0.00 0.00 0.00 45 1010.4
20260509082444 56 104 5.0 6.0 0.00 0.00 0.00 45 1010.6
20260509081941 57 109 6.0 9.0 0.00 0.00 0.00 44 1010.8
20260509081438 57 116 7.0 8.0 0.00 0.00 0.00 45 1010.6
20260509080935 57 120 7.0 10.0 0.00 0.00 0.00 44 1010.7
20260509080433 57 123 8.0 10.0 0.00 0.00 0.00 44 1010.7
20260509075931 57 115 9.0 11.0 0.00 0.00 0.00 44 1010.7
20260509075428 57 117 9.0 11.0 0.00 0.00 0.00 44 1010.8
20260509074926 57 115 8.0 10.0 0.00 0.00 0.00 44 1010.8
20260509074423 57 113 9.0 11.0 0.00 0.00 0.00 44 1010.7
20260509073919 57 117 8.0 12.0 0.00 0.00 0.00 43 1010.9
20260509073416 57 115 9.0 12.0 0.00 0.00 0.00 43 1010.8
20260509072912 57 114 10.0 12.0 0.00 0.00 0.00 43 1010.9
20260509072409 58 111 8.0 11.0 0.00 0.00 0.00 43 1011.1
20260509071905 58 112 10.0 11.0 0.00 0.00 0.00 42 1011.2
20260509071403 58 108 9.0 11.0 0.00 0.00 0.00 42 1011.1
20260509070900 58 113 8.0 11.0 0.00 0.00 0.00 42 1010.8
20260509070356 58 117 9.0 9.0 0.00 0.00 0.00 41 1010.9
20260509065852 59 112 7.0 10.0 0.00 0.00 0.00 41 1010.9
20260509065349 58 103 6.0 7.0 0.00 0.00 0.00 41 1010.6
20260509064845 58 108 6.0 8.0 0.00 0.00 0.00 41 1010.5
20260509064343 59 108 8.0 9.0 0.00 0.00 0.00 41 1010.8
20260509063840 59 111 7.0 8.0 0.00 0.00 0.00 41 1010.4
20260509063336 59 109 8.0 11.0 0.00 0.00 0.00 40 1010.4
20260509062833 59 109 9.0 11.0 0.00 0.00 0.00 40 1010.0
20260509062330 60 111 8.0 11.0 0.00 0.00 0.00 39 1010.5
20260509061827 60 113 10.0 11.0 0.00 0.00 0.00 39 1010.0
20260509061326 61 108 9.0 12.0 0.00 0.00 0.00 38 1010.4
20260509060822 61 107 9.0 14.0 0.00 0.00 0.00 38 1010.1
20260509060319 61 112 10.0 14.0 0.00 0.00 0.00 38 1009.9
20260509055815 61 110 8.0 13.0 0.00 0.00 0.00 38 1009.8
20260509055310 61 103 9.0 12.0 0.00 0.00 0.00 38 1010.0
20260509054808 61 107 9.0 12.0 0.00 0.00 0.00 37 1010.0
20260509054304 62 106 10.0 12.0 0.00 0.00 0.00 37 1010.1
20260509053803 62 104 8.0 11.0 0.00 0.00 0.00 36 1009.9
20260509053259 63 108 9.0 11.0 0.00 0.00 0.00 36 1010.1
20260509052757 63 104 9.0 11.0 0.00 0.00 0.00 35 1009.9
20260509052255 63 100 7.0 12.0 0.00 0.00 0.00 35 1010.0
20260509051752 64 108 13.0 15.0 0.00 0.00 0.00 35 1010.0
20260509051250 64 107 10.0 14.0 0.00 0.00 0.00 35 1009.8
20260509050746 63 102 11.0 15.0 0.00 0.00 0.00 35 1009.9
20260509050243 64 107 10.0 14.0 0.00 0.00 0.00 34 1009.8
20260509045740 64 110 12.0 14.0 0.00 0.00 0.00 34 1009.8
20260509045237 64 102 9.0 13.0 0.00 0.00 0.00 34 1009.9
20260509044734 64 106 9.0 12.0 0.00 0.00 0.00 34 1010.0
20260509044232 64 104 8.0 11.0 0.00 0.00 0.00 34 1009.8
20260509043728 64 104 9.0 11.0 0.00 0.00 0.00 33 1010.0
20260509043224 64 102 10.0 13.0 0.00 0.00 0.00 33 1009.8
20260509042721 65 101 11.0 16.0 0.00 0.00 0.00 32 1009.6
20260509042217 65 96 10.0 14.0 0.00 0.00 0.00 32 1009.8
20260509041714 65 97 10.0 13.0 0.00 0.00 0.00 32 1010.0
20260509041211 65 102 11.0 16.0 0.00 0.00 0.00 32 1009.9
20260509040709 65 102 12.0 14.0 0.00 0.00 0.00 31 1010.0
20260509040205 65 98 10.0 13.0 0.00 0.00 0.00 31 1010.3
20260509035702 66 105 11.0 14.0 0.00 0.00 0.00 31 1010.1
20260509035159 66 93 9.0 13.0 0.00 0.00 0.00 31 1009.8
20260509034657 66 99 9.0 13.0 0.00 0.00 0.00 31 1010.0
20260509034153 67 97 13.0 14.0 0.00 0.00 0.00 30 1009.8
20260509033651 68 102 10.0 15.0 0.00 0.00 0.00 29 1009.9
20260509033147 68 100 14.0 15.0 0.00 0.00 0.00 29 1010.1
20260509032645 68 82 10.0 13.0 0.00 0.00 0.00 29 1009.9
20260509032142 68 93 10.0 12.0 0.00 0.00 0.00 29 1009.8
20260509031639 68 106 9.0 14.0 0.00 0.00 0.00 29 1010.0
20260509031137 68 98 10.0 12.0 0.00 0.00 0.00 29 1009.7
20260509030635 68 93 10.0 11.0 0.00 0.00 0.00 29 1009.5
20260509030132 69 100 9.0 13.0 0.00 0.00 0.00 29 1009.6
20260509025628 70 103 12.0 12.0 0.00 0.00 0.00 28 1009.6
20260509025123 70 89 7.0 12.0 0.00 0.00 0.00 28 1009.5
20260509024619 69 106 10.0 11.0 0.00 0.00 0.00 28 1009.5
20260509024115 70 95 8.0 12.0 0.00 0.00 0.00 28 1009.5
20260509023614 70 79 9.0 13.0 0.00 0.00 0.00 27 1009.2
20260509023110 70 87 7.0 12.0 0.00 0.00 0.00 27 1009.4
20260509022607 70 92 9.0 11.0 0.00 0.00 0.00 27 1009.4
20260509022105 71 86 9.0 12.0 0.00 0.00 0.00 26 1009.1
20260509021601 72 93 8.0 13.0 0.00 0.00 0.00 26 1009.2
20260509021058 72 87 8.0 10.0 0.00 0.00 0.00 26 1008.9
20260509020557 72 84 9.0 11.0 0.00 0.00 0.00 26 1009.1
20260509020053 72 91 7.0 12.0 0.00 0.00 0.00 25 1009.0
20260509015552 73 87 8.0 14.0 0.00 0.00 0.00 25 1009.0
20260509015049 73 77 10.0 13.0 0.00 0.00 0.00 25 1008.8
20260509014546 74 99 9.0 11.0 0.00 0.00 0.00 25 1008.8
20260509014042 74 86 6.0 14.0 0.00 0.00 0.00 25 1008.9
20260509013539 75 78 10.0 14.0 0.00 0.00 0.00 24 1008.7
20260509013034 75 88 8.0 11.0 0.00 0.00 0.00 23 1008.8
20260509012532 76 81 9.0 12.0 0.00 0.00 0.00 23 1008.6
20260509012028 76 70 7.0 10.0 0.00 0.00 0.00 23 1008.4
20260509011526 77 65 8.0 11.0 0.00 0.00 0.00 22 1008.3
20260509011023 77 59 11.0 12.0 0.00 0.00 0.00 22 1008.6
20260509010521 78 66 8.0 11.0 0.00 0.00 0.00 22 1008.6
20260509010017 78 56 8.0 16.0 0.00 0.00 0.00 22 1008.3
20260509005515 78 88 10.0 14.0 0.00 0.00 0.00 21 1008.6
20260509005015 78 66 10.0 13.0 0.00 0.00 0.00 21 1008.4
20260509004513 78 60 14.0 17.0 0.00 0.00 0.00 21 1008.2
20260509004010 79 71 14.0 20.0 0.00 0.00 0.00 21 1008.2
20260509003508 79 61 12.0 15.0 0.00 0.00 0.00 21 1008.2
20260509003004 79 79 13.0 18.0 0.00 0.00 0.00 21 1008.1
20260509002503 79 77 16.0 20.0 0.00 0.00 0.00 21 1008.1
20260509001959 80 57 11.0 18.0 0.00 0.00 0.00 21 1008.2
20260509001456 80 53 13.0 18.0 0.00 0.00 0.00 20 1008.1
20260509000952 80 16 5.0 10.0 0.00 0.00 0.00 20 1007.9
20260509000451 80 54 9.0 15.0 0.00 0.00 0.00 20 1008.1
20260508235946 81 5 7.0 9.0 0.00 0.00 0.00 19 1008.0
20260508235444 81 18 7.0 9.0 0.00 0.00 0.00 19 1007.9
20260508234941 81 357 9.0 16.0 0.00 0.00 0.00 19 1008.1
20260508234438 81 75 9.0 12.0 0.00 0.00 0.00 19 1008.2
20260508233935 80 42 10.0 15.0 0.00 0.00 0.00 20 1008.1
20260508233435 81 71 13.0 17.0 0.00 0.00 0.00 19 1008.1
20260508232931 81 64 13.0 16.0 0.00 0.00 0.00 19 1007.9
20260508232428 81 54 9.0 15.0 0.00 0.00 0.00 19 1008.1
20260508231925 81 9 8.0 16.0 0.00 0.00 0.00 19 1007.9
20260508231422 82 18 7.0 13.0 0.00 0.00 0.00 19 1007.7
20260508230919 82 35 19.0 22.0 0.00 0.00 0.00 19 1007.8
20260508230416 82 53 16.0 19.0 0.00 0.00 0.00 19 1007.8
20260508225913 82 1 5.0 19.0 0.00 0.00 0.00 18 1007.8
20260508225409 82 46 10.0 16.0 0.00 0.00 0.00 18 1007.8
20260508224907 82 83 8.0 16.0 0.00 0.00 0.00 18 1007.5
20260508224405 82 50 9.0 13.0 0.00 0.00 0.00 18 1007.7
20260508223902 83 351 10.0 15.0 0.00 0.00 0.00 17 1007.7
20260508223400 82 349 4.0 11.0 0.00 0.00 0.00 17 1007.5
20260508222857 83 339 12.0 15.0 0.00 0.00 0.00 17 1007.4
20260508222354 83 37 8.0 13.0 0.00 0.00 0.00 17 1007.4
20260508221850 82 357 6.0 10.0 0.00 0.00 0.00 17 1007.4